Vertical_Velocity
6 -7 -3 -8 0 -27 17 7 -1 5 7 7 6 2 6 -2 0 2 3 -2 -0 -2 -1 2 -2 1 1 1 0 -0 1 0 -2 2 -0 -2 -1 1 -0 0 2 -2 -5
-1 10 -7 -14 13 -12 3 4 5 2 5 2 4 1 -2 0 1 -2 6 -1 0 -1 0 0 -0 0 3 -2 1 -0 -1 -1 -1 -1 2 0 -1 0 -0 1 -1 -8 -0
5 3 -13 -15 11 0 -7 8 3 4 3 1 -3 2 -0 -1 2 0 7 1 0 -4 -1 -0 0 0 -0 -1 -1 -0 -1 -0 -1 -0 1 -1 1 3 -7 -6 2 -2 -1
-6 -4 5 -4 -5 15 -8 3 2 5 5 1 1 5 5 0 2 2 0 -0 -0 -3 0 -1 1 -1 0 2 -1 0 -1 2 -0 -1 -0 -2 -9 -2 7 10 -4 -1 4
6 9 27 -18 4 5 -14 6 6 -1 4 1 5 -0 5 2 1 4 -0 2 0 -1 3 -2 1 -2 2 -2 1 -1 0 1 3 1 -3 -1 -5 -6 -13 -11 17 1 -7
4 5 11 -2 6 5 -3 -1 6 1 4 4 0 1 1 4 4 3 0 3 3 1 2 -2 -0 0 3 0 -1 -1 -2 -1 2 -2 -4 -3 -0 0 -5 -12 -16 8 7
6 8 10 10 -21 9 -4 11 -1 -4 2 5 1 1 3 3 0 2 4 5 8 3 2 -2 3 0 4 -1 -1 -2 1 -3 1 -0 1 -1 0 -1 1 1 -4 -4 -11
6 2 8 5 -7 -6 5 4 2 0 1 5 3 -5 -0 2 -4 4 2 1 1 1 2 -4 1 2 3 2 -2 -1 -1 0 -2 1 -1 2 2 -1 1 2 -1 -1 -9
1 5 4 4 5 -11 -6 4 1 3 2 7 6 -3 0 4 -2 -1 -3 2 2 3 2 1 4 17 9 -0 -4 1 5 2 5 2 1 3 -1 1 3 1 -1 -1 -3
2 12 5 4 1 1 -7 -1 6 -5 -5 8 8 10 0 -1 -0 -9 5 3 3 6 33 15 -4 5 5 12 2 8 11 3 3 -0 -4 3 12 3 7 1 2 2 0
22 20 20 10 3 2 -1 2 3 1 -1 -6 9 8 8 6 6 3 9 5 -0 -2 7 -0 6 25 6 7 16 5 2 5 -5 9 1 1 4 4 3 8 2 -2 -1
-8 27 9 3 0 4 -3 4 9 -3 1 -0 -4 10 11 8 9 4 -3 3 3 2 3 -1 1 4 4 -1 3 5 2 5 -1 -1 1 2 3 8 9 10 7 4 -0
1 7 6 18 7 2 -2 2 -2 1 -1 2 -4 5 14 4 3 4 2 -1 -0 0 -0 3 -2 1 2 0 4 9 -0 -3 5 -2 2 3 8 14 15 13 -0 4 1
2 5 -1 4 13 10 22 17 8 0 3 9 4 -2 1 2 -1 -0 -4 -6 -6 0 4 -1 -2 -2 -1 0 2 3 1 -2 -1 -1 9 4 7 5 5 4 6 1 -0
-7 -4 -3 -1 -3 2 8 4 24 7 7 1 2 6 5 4 -1 -3 -1 -2 -2 -1 -1 -2 -1 -5 -1 1 0 -1 -2 -1 7 12 8 10 2 -2 4 -0 2 2 0
-20 -1 4 -4 -1 -8 -5 -10 -9 -0 11 15 9 -3 -6 -2 -2 -1 3 2 -0 2 -1 -5 -2 -3 -4 2 -0 3 3 -3 -5 1 1 5 -2 3 7 5 1 2 2
-22 8 2 -6 -7 -2 -7 -5 4 -2 -12 0 1 -3 -1 3 -3 0 0 2 4 -1 -4 -6 -2 1 -1 -2 -1 -3 3 2 8 2 2 2 5 6 4 2 2 -2 -2
-16 14 -1 -13 -3 0 1 0 -7 -2 -11 -16 -2 -7 -7 -8 5 6 -5 -1 4 6 2 2 1 3 4 1 2 0 -1 -0 1 4 5 2 6 9 -1 2 1 -1 -0
-12 11 3 -0 6 -1 0 -3 -1 1 3 -15 -6 8 -7 -18 8 -1 -3 -2 -5 -0 3 0 1 -1 -3 0 2 4 4 6 4 7 2 1 8 -1 -1 3 -1 -1 -3
1 -2 4 3 -4 7 -2 1 3 -3 12 3 -4 -5 -10 -5 -3 4 -9 -7 -5 -1 -4 -5 2 6 11 9 2 1 5 5 3 2 3 5 12 1 1 -1 -2 0 1
-7 3 -4 -2 6 14 -3 2 -7 7 -2 -1 -3 -4 -12 -3 -1 2 1 -3 1 7 7 3 8 4 5 -1 -1 2 6 -0 5 2 7 4 -2 0 0 -3 -2 1 0
2 8 9 -6 -1 -10 -2 1 3 -2 1 -2 0 -5 -2 -2 3 4 4 -0 2 4 3 3 2 -0 5 11 4 4 4 4 4 0 6 2 -6 -6 -3 1 -2 -1 -3
0 12 -4 -13 4 30 6 6 -3 -0 -2 -2 1 3 5 1 2 3 -1 -0 1 1 1 -3 14 14 5 2 5 3 2 3 3 1 1 3 4 3 0 -0 -1 -2 -4
-10 38 -1 -4 -6 -1 9 -7 3 2 -1 -2 2 -3 1 1 4 7 -2 0 -4 -2 10 9 1 4 4 0 -1 -0 1 1 2 1 -2 1 1 1 -4 -2 -3 -5 -3
-1 -4 -4 -4 0 4 -4 2 1 2 1 -1 9 4 8 21 18 7 5 6 8 1 4 1 3 1 -1 -2 2 2 2 1 1 1 -0 -4 -4 -2 -3 -4 -5 -6 3
1 -1 -2 -8 7 0 -3 1 1 1 -3 -2 11 1 3 7 5 4 4 0 -0 1 -3 -1 -0 4 2 -1 -1 -0 -2 1 -2 0 0 -3 -1 -1 -5 -4 -0 1 2
Height
5740 5733 5735 5734 5739 5736 5740 5749 5747 5749 5750 5751 5754 5755 5759 5758 5760 5760 5760 5760 5760 5759 5759 5760 5758 5759 5759 5759 5759 5759 5758 5758 5757 5757 5756 5755 5753 5752 5751 5750 5748 5746 5743
5728 5729 5719 5724 5732 5729 5725 5736 5737 5737 5740 5740 5744 5745 5747 5747 5748 5749 5752 5750 5750 5750 5749 5750 5748 5749 5750 5749 5750 5748 5748 5747 5747 5746 5745 5744 5744 5742 5741 5740 5738 5734 5733
5718 5716 5713 5710 5718 5718 5715 5721 5726 5727 5729 5730 5731 5733 5736 5735 5737 5739 5742 5740 5740 5739 5739 5740 5739 5740 5740 5739 5739 5738 5738 5737 5737 5736 5735 5734 5734 5734 5731 5729 5727 5724 5721
5704 5706 5705 5698 5703 5708 5706 5708 5713 5715 5717 5718 5718 5720 5723 5724 5726 5726 5729 5728 5729 5728 5728 5728 5730 5729 5729 5729 5728 5728 5728 5728 5726 5725 5723 5722 5721 5720 5720 5718 5715 5711 5709
5695 5697 5694 5693 5692 5697 5694 5697 5702 5702 5704 5706 5707 5708 5710 5712 5714 5715 5717 5716 5717 5717 5718 5718 5719 5719 5720 5719 5718 5718 5717 5716 5716 5714 5712 5711 5709 5707 5705 5703 5702 5700 5696
5686 5689 5686 5679 5680 5683 5686 5685 5688 5690 5693 5695 5695 5696 5699 5701 5703 5704 5703 5705 5706 5706 5706 5707 5707 5707 5708 5709 5708 5707 5706 5706 5705 5703 5701 5699 5697 5694 5691 5687 5686 5686 5686
5675 5677 5676 5670 5670 5670 5675 5677 5676 5677 5680 5683 5684 5685 5688 5689 5690 5692 5693 5693 5694 5695 5695 5696 5695 5696 5697 5696 5696 5695 5695 5693 5692 5690 5688 5686 5683 5680 5677 5673 5671 5670 5669
5658 5660 5663 5660 5656 5661 5662 5665 5666 5668 5670 5672 5673 5673 5675 5677 5678 5679 5681 5683 5683 5684 5684 5684 5683 5684 5685 5683 5683 5682 5680 5680 5678 5676 5674 5672 5668 5665 5662 5661 5657 5654 5653
5637 5641 5646 5646 5646 5645 5648 5652 5653 5655 5658 5661 5661 5661 5662 5665 5666 5665 5667 5670 5671 5672 5673 5672 5671 5670 5670 5671 5668 5667 5667 5665 5664 5663 5662 5659 5654 5650 5647 5646 5642 5641 5636
5617 5624 5628 5632 5633 5634 5636 5638 5638 5640 5643 5646 5648 5648 5647 5648 5651 5651 5654 5656 5657 5658 5659 5658 5658 5659 5658 5654 5655 5655 5653 5652 5650 5649 5646 5644 5639 5635 5633 5632 5628 5625 5623
5610 5609 5612 5615 5618 5619 5622 5624 5625 5626 5628 5630 5634 5634 5633 5634 5636 5638 5641 5643 5642 5643 5645 5643 5643 5640 5642 5641 5643 5641 5638 5637 5636 5634 5631 5629 5626 5623 5621 5617 5613 5611 5609
5597 5597 5597 5600 5604 5605 5608 5611 5612 5613 5613 5615 5619 5622 5622 5622 5623 5624 5626 5627 5628 5630 5630 5629 5630 5630 5629 5628 5629 5627 5625 5624 5621 5620 5617 5614 5611 5611 5608 5604 5599 5596 5593
5580 5582 5585 5587 5588 5592 5592 5595 5599 5599 5601 5603 5605 5609 5609 5609 5611 5612 5613 5614 5616 5616 5616 5616 5615 5615 5615 5615 5614 5612 5610 5608 5607 5605 5603 5600 5597 5595 5593 5588 5585 5583 5580
5565 5566 5569 5573 5575 5575 5578 5582 5583 5587 5588 5588 5590 5593 5596 5598 5599 5601 5601 5601 5602 5602 5602 5600 5600 5600 5600 5599 5598 5597 5595 5594 5593 5590 5589 5586 5581 5579 5577 5572 5570 5567 5563
5549 5553 5557 5559 5564 5561 5565 5565 5569 5573 5574 5575 5575 5577 5579 5581 5585 5588 5590 5590 5590 5590 5589 5588 5588 5586 5586 5586 5585 5583 5582 5581 5577 5573 5572 5568 5563 5561 5559 5557 5554 5551 5548
5532 5541 5540 5543 5547 5551 5548 5551 5554 5556 5558 5560 5560 5562 5565 5567 5569 5572 5575 5577 5576 5576 5576 5575 5574 5574 5574 5573 5571 5569 5567 5565 5561 5558 5555 5552 5549 5545 5542 5540 5538 5536 5532
5522 5527 5525 5525 5530 5533 5535 5538 5539 5538 5540 5543 5546 5547 5550 5553 5556 5557 5558 5560 5560 5560 5560 5560 5561 5560 5559 5557 5555 5553 5551 5548 5544 5542 5539 5536 5533 5530 5527 5525 5521 5520 5518
5509 5510 5510 5510 5512 5516 5519 5520 5523 5526 5525 5525 5531 5532 5535 5539 5543 5541 5541 5542 5542 5542 5542 5544 5544 5544 5541 5539 5537 5536 5534 5531 5529 5526 5522 5521 5518 5514 5513 5511 5509 5506 5502
5495 5494 5497 5497 5498 5498 5501 5504 5508 5509 5511 5509 5515 5518 5518 5523 5527 5523 5522 5523 5525 5525 5525 5525 5526 5525 5523 5521 5519 5517 5516 5514 5512 5510 5508 5506 5506 5500 5499 5498 5496 5492 5488
5481 5479 5480 5483 5484 5483 5482 5488 5493 5493 5496 5495 5494 5497 5499 5502 5504 5503 5503 5504 5504 5504 5504 5504 5505 5504 5503 5502 5500 5500 5500 5498 5496 5494 5494 5493 5490 5488 5486 5484 5482 5478 5473
5466 5469 5468 5468 5472 5472 5470 5473 5475 5478 5478 5479 5478 5479 5480 5483 5482 5482 5483 5484 5484 5484 5485 5486 5488 5488 5487 5486 5487 5486 5483 5485 5484 5483 5482 5479 5479 5477 5473 5470 5467 5463 5457
5456 5456 5457 5455 5458 5456 5461 5459 5462 5461 5461 5463 5463 5462 5462 5463 5463 5462 5463 5465 5465 5467 5469 5472 5474 5475 5474 5472 5473 5473 5473 5474 5474 5474 5475 5466 5465 5463 5461 5457 5452 5447 5441
5444 5446 5444 5444 5447 5445 5449 5445 5446 5448 5448 5447 5446 5446 5446 5446 5447 5449 5449 5450 5452 5455 5456 5458 5461 5461 5461 5461 5461 5462 5463 5464 5463 5463 5463 5458 5454 5451 5447 5442 5437 5431 5426
5436 5434 5432 5433 5433 5438 5436 5434 5436 5437 5438 5438 5437 5434 5435 5435 5438 5441 5440 5440 5442 5442 5444 5448 5449 5451 5453 5454 5454 5454 5454 5453 5453 5450 5449 5446 5443 5440 5434 5428 5421 5415 5406
5422 5423 5423 5423 5426 5426 5425 5427 5428 5429 5429 5431 5430 5428 5428 5429 5430 5434 5436 5436 5438 5440 5439 5442 5445 5447 5447 5447 5447 5446 5444 5443 5441 5438 5438 5434 5431 5426 5419 5411 5404 5396 5384
5412 5414 5415 5415 5417 5416 5417 5418 5420 5421 5422 5424 5423 5423 5423 5425 5426 5428 5430 5431 5432 5434 5436 5437 5439 5440 5439 5439 5438 5437 5434 5431 5429 5427 5425 5421 5416 5408 5403 5392 5381 5377 5368